Home > Weather > Rostov-on-Don > Past weeks

Flag for Russia Weather for the Past 2 Weeks in Rostov-on-Don, Russia

Now
55 °F

Sunny.


Feels Like: 52 °F
Forecast: 53 / 62 °F
Wind: 13 mph from East

Location: Rostov-Na-Donu

Current Time: May 4, 2016 at 9:25:01 AM

Latest Report: May 4, 2016 at 8:30 AM


Visibility: 10 mi

Pressure: 29.83 "Hg

Humidity: 67%

Dew Point: 45 °F

Location of Rostov-on-DonLocation

Historic Weather in Rostov-on-Don — Graph

°F

Rostov-on-Don Temperature Yesterday

Maximum temperature yesterday: 66 °F (at 3:30 PM)
Minimum temperature yesterday: 43 °F (at 4:00 AM)
Average temperature yesterday: 56 °F

High & Low Weather Summary for the Past Weeks

 TemperatureHumidityPressure
High68 °F (Apr 19, 1:00 PM)94% (Apr 27, 9:30 AM)30.15 "Hg (Apr 27, 9:30 AM)
Low41 °F (Apr 22, 4:30 AM)26% (May 2, 2:30 PM)29.47 "Hg (Apr 25, 6:00 PM)
Average57 °F67%29.91 "Hg
* Reported Apr 19 8:00 AM — May 4 8:00 AM, Rostov-on-Don, Weather by CustomWeather, © 2016

Note: Actual official high and low records may vary slightly from our data, if they occured in-between our weather recording intervals... More about our weather records

Advertising

Rostov-on-Don Weather History for the Previous 24 Hours

Scroll right to see more
 ConditionsComfort  
Time TempWeatherWind HumidityBarometerVisibility
8:00 AM
Wed, May 4
54 °FSunny.13 mph72%29.83 "Hg10 mi
7:30 AM52 °FSunny.13 mph72%29.83 "Hg10 mi
7:00 AM52 °FSunny.13 mph72%29.83 "Hg10 mi
6:30 AM50 °FSunny.13 mph71%29.83 "Hg10 mi
6:00 AM50 °FSunny.13 mph71%29.83 "Hg10 mi
5:30 AM50 °FSunny.13 mph71%29.83 "Hg10 mi
5:00 AM50 °FClear.13 mph71%29.83 "Hg5 mi
4:30 AM48 °FClear.8 mph76%29.86 "Hg5 mi
4:00 AM50 °FClear.10 mph71%29.86 "Hg5 mi
3:30 AM50 °FClear.13 mph71%29.86 "Hg5 mi
3:00 AM50 °FClear.8 mph71%29.86 "Hg5 mi
2:30 AM50 °FClear.10 mph71%29.86 "Hg5 mi
2:00 AM50 °FClear.10 mph71%29.86 "Hg5 mi
1:30 AM52 °FClear.10 mph67%29.86 "Hg5 mi
1:00 AM52 °FClear.10 mph67%29.89 "Hg5 mi
12:30 AM50 °FClear.8 mph71%29.89 "Hg5 mi
12:00 AM52 °FClear.8 mph67%29.92 "Hg5 mi
11:30 PM
Tue, May 3
52 °FClear.8 mph67%29.92 "Hg5 mi
11:00 PM54 °FClear.10 mph67%29.92 "Hg5 mi
10:30 PM54 °FClear.10 mph67%29.92 "Hg5 mi
10:00 PM52 °FClear.8 mph72%29.92 "Hg5 mi
9:30 PM54 °FClear.6 mph63%29.92 "Hg5 mi
9:00 PM54 °FClear.8 mph63%29.92 "Hg5 mi
8:00 PM55 °FClear.8 mph59%29.95 "Hg5 mi
7:30 PM57 °FSunny.8 mph55%29.92 "Hg10 mi
7:00 PM61 °FSunny.10 mph48%29.92 "Hg10 mi
6:30 PM61 °FSunny.13 mph48%29.92 "Hg10 mi
6:00 PM63 °FSunny.15 mph45%29.92 "Hg10 mi
5:30 PM64 °FSunny.13 mph40%29.92 "Hg10 mi
5:00 PM64 °FSunny.15 mph37%29.92 "Hg10 mi
4:30 PM64 °FPassing clouds.13 mph40%29.95 "HgN/A
4:00 PM64 °FPassing clouds.13 mph40%29.95 "HgN/A
3:30 PM66 °FSunny.13 mph37%29.95 "Hg10 mi
3:00 PM64 °FPassing clouds.15 mph37%29.95 "HgN/A
2:30 PM64 °FPassing clouds.13 mph37%29.95 "HgN/A
2:00 PM64 °FPassing clouds.13 mph37%29.98 "HgN/A
1:30 PM64 °FPassing clouds.13 mph40%29.98 "HgN/A
1:00 PM64 °FSunny.10 mph37%29.98 "Hg10 mi
12:30 PM63 °FPassing clouds.10 mph39%30.01 "HgN/A
12:00 PM63 °FPassing clouds.13 mph42%30.01 "HgN/A
11:30 AM61 °FSunny.10 mph45%30.01 "Hg10 mi
11:00 AM61 °FSunny.13 mph52%30.01 "Hg10 mi
10:30 AM59 °FSunny.13 mph51%30.04 "Hg10 mi
10:00 AM59 °FSunny.8 mph51%30.04 "Hg10 mi
9:30 AM57 °FPassing clouds.13 mph55%30.04 "HgN/A
9:00 AM55 °FSunny.8 mph55%30.04 "Hg10 mi
Weather by CustomWeather, © 2016

See weather overviewHow to use our weather pages